Regional Weather Roundup
Issued by NWS

Home | Current Version | Previous Version | Graphics & Text | Print | Product List | Glossary On
Versions: 1 2 3 4 5 6 7 8 9 10 11 12 13 14 15 16 17 18 19 20 21 22 23 24 25 26 27 28 29 30 31 32 33 34 35 36 37 38 39 40 41 42 43 44 45 46 47 48 49 50
000
ASUS43 KLSX 200159
RWRMO

WEATHER SUMMARY FOR MISSOURI
NATIONAL WEATHER SERVICE SPRINGFIELD MO
900 PM CDT SUN OCT 19 2014

NOTE: "FAIR" INDICATES FEW OR NO CLOUDS BELOW 12,000 FEET WITH NO
       SIGNIFICANT WEATHER AND/OR OBSTRUCTIONS TO VISIBILITY.
       CURRENT SKY AND/OR WEATHER CONDITIONS ARE NOT AVAILABLE FOR
       CHILLICOTHE AND FARMINGTON.

MOZ001>031-035>038-043-044-053-054-200300-
...NORTHERN AND WESTERN MISSOURI...

CITY           SKY/WX    TMP DP  RH WIND       PRES   REMARKS
KANSAS CTY INT PTCLDY    55  49  80 S9        29.99F
KANSAS C DTWN  PTCLDY    61  49  64 SW8       30.00S
LEE`S SUMMIT   PTCLDY    60  50  69 S8        30.01F
ST JOSEPH      CLEAR     52  47  83 S3        29.99S
KIRKSVILLE     PTCLDY    54  44  69 SW7       29.99F

$$
MOZ066>068-077>081-088>096-101>105-200300-
...SOUTHWEST MISSOURI...

CITY           SKY/WX    TMP DP  RH WIND       PRES   REMARKS
SPRINGFIELD    PTCLDY    55  49  80 S8        30.07S
JOPLIN         PTCLDY    57  52  83 S6        30.06F

$$
MOZ032>034-039>042-045>050-055>058-069>072-200300-
...CENTRAL MISSOURI...

CITY           SKY/WX    TMP DP  RH WIND       PRES   REMARKS
COLUMBIA       CLOUDY    56  45  66 S8        30.02F
JEFFERSON CITY PTCLDY    59  46  62 CALM      30.03F
ROLLA          CLOUDY    53  45  74 S7        30.04F
SEDALIA        PTCLDY    58  49  72 SW7       30.03F
OSAGE BEACH    CLEAR     55  45  67 S8        30.04F

$$
MOZ051-052-059>065-200300-
...EAST CENTRAL MISSOURI...

CITY           SKY/WX    TMP DP  RH WIND       PRES   REMARKS
ST LOUIS INTL  NOT AVBL
SPIRIT OF STL  FAIR      50  47  89 CALM      30.03F
ST CHARLES     PTCLDY    52  47  83 CALM      30.03F

$$
MOZ072>076-082>087-097>100-106>115-200300-
...SOUTH CENTRAL AND SOUTHEAST MISSOURI...

CITY           SKY/WX    TMP DP  RH WIND       PRES   REMARKS
CAPE GIRARDEAU MOCLDY    51  45  79 S5        30.09F
FARMINGTON     PTCLDY    50  45  81 CALM      30.09S
POPLAR BLUFF   MOCLDY    52  46  80 SE3       30.09F
WEST PLAINS    PTCLDY    50  45  83 S3        30.10F

$$


USA.gov is the U.S. government's official web portal to all federal, state and local government web resources and services.